CZ-6A DEB, 61335

Orbit data source: Space-Track

CZ-6A DEB, 61335 is space debris in LEO originally from a launch on Tue, 06 Aug 2024 UTC launched from the Taiyaun Space Center, China (TSC). Debris objects in space refer to the collection of defunct objects orbiting the Earth. Examples of debris include non-operational satellites, rocket bodies, and fragments generated from explosions, collisions, or faulty payload assembly.

Loading next visibility...
Identifier
61335, 2024-140UY
Orbit
LEO
Country
Flag of CNCN / PRC
Related business
Manufacturer
SAST
Mission
Spacecraft
Bus & Motor
Unknown
Mass
Unknown
Launch date (UTC)
2024-08-06 (1 year ago)
Launch vehicle
Unknown
Launch site
Taiyaun Space Center, China (TSC)
Object type
Payload
Rocket body
Debris
Shape & HBR
Unknown shape, 0.1 m
Radar Cross Section
Small (<0.1 m²)

Expand to show TLE details & history
Last TLE update: 20 hours ago

TLE from 20 hours ago
0 CZ-6A DEB
1 61335U 24140UY  25284.47810234  .00559766  00000-0  51148-2 0  9998
2 61335  88.9672 296.5104 0037896 250.6627 109.0544 15.65330647 60849
Epoch: 2025-10-11T11:28Z
TLE epoch observation values (Epoch: 2025-10-11T11:28:28.042Z)
Latitude
-0°
Longitude
104.08454°
Altitude
383.986 km
Speed
7.675 km/s
True Right ascension
19h 46m 02s
True Declination
0° 00' 00"
Sunlit
Object was in daylight at epoch
Visualization orbit readout
Latitude
Unknown
Longitude
Unknown
Altitude
Unknown
Speed
Unknown
Apparent Right ascension
Unknown
Apparent Declination
Unknown
Sunlit
N/A
Visualization observer readout
Local Sidereal Time
01:45:40
Azimuth
Unknown
Elevation
Unknown
Doppler factor
Unknown
Orbital elements
Apogee altitude
394.603 km
Perigee altitude
343.465 km
Semi-major axis
6,747.171 km
Eccentricity
0.00379
Inclination
88.9672°
RAAN
296.5104°
Arg. of periapsis
250.6627°
True anomaly
109.46423°
Mean anomaly
109.0544°
Eccentric anomaly
109.25938°
Mean motion
3.91616 °/min
Orbital period
91.93 mins
BSTAR
0.0051148
Loading maneuver chart data...
Computing Atmospheric mass density...
Loading historical data...
Loading historical data...
Loading historical data...
Loading historical data...
Loading historical data...
Loading historical data...
Loading historical data...

Documentation

Showing up to 5 results
|